Regional Weather Roundup
Issued by NWS

Home | Current Version | Previous Version | Text Only | Print | Product List | Glossary On
Versions: 1 2 3 4 5 6 7 8 9 10 11 12 13 14 15 16 17 18 19 20 21 22 23 24 25 26 27 28 29 30 31 32 33 34 35 36 37 38 39 40 41 42 43 44 45 46 47 48 49 50
000
ASUS42 KKEY 211510
RWRKEY

FLORIDA REGIONAL WEATHER ROUNDUP FOR THE FLORIDA KEYS
NATIONAL WEATHER SERVICE KEY WEST FLORIDA
1100 AM EDT TUE APR 21 2015

...SOUTH FLORIDA AND THE KEYS...

CITY           SKY/WX    TMP DP  RH WIND       PRES   REMARKS
FORT MYERS     CLOUDY    80  71  74 S5        29.99R
SW REGIONAL AP CLOUDY    79  71  76 CALM      30.00R
NAPLES         PTSUNNY   80  72  76 E3        30.00R
MIAMI          CLOUDY    77  71  82 VRB6      30.02R
WEST KENDALL   CLOUDY    76  72  87 W3        30.01R
HOMESTEAD      PTSUNNY   79  72  79 NW3       30.00S
MARATHON       SUNNY     88  77  69 SW8       30.01R HX 100
BOCA CHICA NAS MOSUNNY   85  76  74 S13       30.01R HX  94
KEY WEST INTL  MOSUNNY   83  76  79 S10       30.01R HX  91

...INTERNATIONAL WEATHER...

CITY           SKY/WX    TMP DP  RH WIND       PRES   REMARKS
NASSAU BAHAMAS PTSUNNY   86  77  74 SW9       30.02  HX  97
CANCUN MEXICO  PTSUNNY   84  75  74 SE15      29.94R HX  92
COZUMEL MEXICO MOSUNNY   82  75  78 SE12      29.95S

ADJACENT COASTAL WATERS...

STATION/POSITION TIME  SKY/WX   TEMP    WIND        PRES    WAVE
                                AIR SEA DIR/SP/G            HT/PER
                 (UTC)          (F)     (DEG/KT/KT) (MB)    (FT/S)
PULASKI SHOAL LI 1400            80        CALM     1015.6R
SAND KEY         1450            81     200/ 11/ 12 1016.3R
SOMBRERO KEY     1500            81     200/ 10/ 10 1016.8R
LONG KEY         1400            82 84  240/  6/  9 1016.4R
MOLASSES REEF    1500            81 80  220/ 11/ 11 1016.0R
FOWEY ROCKS      NOT AVBL

$$



USA.gov is the U.S. government's official web portal to all federal, state and local government web resources and services.